| time (UTC) | temp F | wind direction | speed MPH | gust MPH | rain 1hr in | rain 24hr in | rain mn in | humidity % | barometer mb |
| 20260508224545 | 54 | 330 | 0.0 | 8.0 | 0.00 | 0.00 | 0.00 | 36 | 1007.7 |
| 20260508223024 | 54 | 111 | 1.0 | 9.0 | 0.00 | 0.00 | 0.00 | 36 | 1007.6 |
| 20260508221600 | 55 | 292 | 0.0 | 3.0 | 0.00 | 0.00 | 0.00 | 37 | 1007.6 |
| 20260508220038 | 56 | 310 | 3.0 | 10.0 | 0.00 | 0.00 | 0.00 | 35 | 1007.4 |
| 20260508214511 | 56 | 316 | 0.0 | 6.0 | 0.00 | 0.00 | 0.00 | 37 | 1007.3 |
| 20260508213100 | 56 | 283 | 2.0 | 8.0 | 0.00 | 0.00 | 0.00 | 36 | 1007.4 |
| 20260508211532 | 58 | 321 | 3.0 | 13.0 | 0.00 | 0.00 | 0.00 | 33 | 1007.1 |
| 20260508210005 | 57 | 233 | 3.0 | 15.0 | 0.00 | 0.00 | 0.00 | 34 | 1006.9 |
| 20260508204544 | 58 | 300 | 2.0 | 12.0 | 0.00 | 0.00 | 0.00 | 34 | 1006.8 |
| 20260508203034 | 56 | 222 | 4.0 | 11.0 | 0.00 | 0.00 | 0.00 | 37 | 1006.7 |
| 20260508201519 | 55 | 109 | 2.0 | 14.0 | 0.00 | 0.00 | 0.00 | 36 | 1006.7 |
| 20260508200124 | 55 | 302 | 5.0 | 12.0 | 0.00 | 0.00 | 0.00 | 36 | 1006.6 |
| 20260508194534 | 56 | 263 | 2.0 | 9.0 | 0.00 | 0.00 | 0.00 | 36 | 1006.3 |
| 20260508193012 | 56 | 317 | 3.0 | 9.0 | 0.00 | 0.00 | 0.00 | 35 | 1006.1 |
| 20260508191547 | 56 | 18 | 4.0 | 12.0 | 0.00 | 0.00 | 0.00 | 34 | 1005.9 |
| 20260508190032 | 56 | 279 | 3.0 | 10.0 | 0.00 | 0.00 | 0.00 | 32 | 1006.0 |
| 20260508184513 | 57 | 267 | 1.0 | 8.0 | 0.00 | 0.00 | 0.00 | 34 | 1005.7 |
| 20260508183053 | 57 | 293 | 1.0 | 12.0 | 0.00 | 0.00 | 0.00 | 31 | 1005.8 |
| 20260508181604 | 58 | 311 | 1.0 | 10.0 | 0.00 | 0.00 | 0.00 | 31 | 1005.7 |
| 20260508180016 | 58 | 318 | 4.0 | 12.0 | 0.00 | 0.00 | 0.00 | 31 | 1005.8 |
| 20260508174606 | 57 | 323 | 0.0 | 12.0 | 0.00 | 0.00 | 0.00 | 32 | 1005.8 |
| 20260508173030 | 57 | 327 | 0.0 | 9.0 | 0.00 | 0.00 | 0.00 | 33 | 1005.7 |
| 20260508171506 | 56 | 216 | 2.0 | 9.0 | 0.00 | 0.00 | 0.00 | 36 | 1005.8 |
| 20260508170048 | 57 | 348 | 1.0 | 10.0 | 0.00 | 0.00 | 0.00 | 34 | 1005.8 |
| 20260508164534 | 57 | 313 | 2.0 | 8.0 | 0.00 | 0.00 | 0.00 | 34 | 1005.7 |
| 20260508163007 | 57 | 332 | 3.0 | 13.0 | 0.00 | 0.00 | 0.00 | 34 | 1006.0 |
| 20260508161547 | 57 | 275 | 2.0 | 8.0 | 0.00 | 0.00 | 0.00 | 34 | 1006.0 |
| 20260508160036 | 58 | 331 | 2.0 | 9.0 | 0.00 | 0.00 | 0.00 | 33 | 1006.0 |
| 20260508154503 | 58 | 304 | 2.0 | 8.0 | 0.00 | 0.00 | 0.00 | 34 | 1006.1 |
| 20260508153043 | 57 | 327 | 1.0 | 9.0 | 0.00 | 0.00 | 0.00 | 35 | 1006.1 |
| 20260508151521 | 56 | 294 | 0.0 | 7.0 | 0.00 | 0.00 | 0.00 | 36 | 1006.2 |
| 20260508150101 | 57 | 5 | 3.0 | 11.0 | 0.00 | 0.00 | 0.00 | 36 | 1006.3 |
| 20260508144536 | 56 | 309 | 4.0 | 9.0 | 0.00 | 0.00 | 0.00 | 36 | 1006.3 |
| 20260508143011 | 56 | 192 | 1.0 | 9.0 | 0.00 | 0.00 | 0.00 | 38 | 1006.4 |
| 20260508141558 | 56 | 258 | 1.0 | 6.0 | 0.00 | 0.00 | 0.00 | 37 | 1006.5 |
| 20260508140032 | 55 | 339 | 3.0 | 10.0 | 0.00 | 0.00 | 0.00 | 39 | 1006.7 |
| 20260508134508 | 55 | 310 | 1.0 | 9.0 | 0.00 | 0.00 | 0.00 | 41 | 1006.9 |
| 20260508133050 | 53 | 277 | 3.0 | 10.0 | 0.00 | 0.00 | 0.00 | 42 | 1006.9 |
| 20260508131520 | 52 | 269 | 2.0 | 7.0 | 0.00 | 0.00 | 0.00 | 46 | 1006.9 |
| 20260508130057 | 52 | 298 | 1.0 | 5.0 | 0.00 | 0.00 | 0.00 | 47 | 1007.1 |
| 20260508124531 | 50 | 327 | 0.0 | 5.0 | 0.00 | 0.00 | 0.00 | 50 | 1007.0 |
| 20260508123017 | 49 | 282 | 0.0 | 6.0 | 0.00 | 0.00 | 0.00 | 52 | 1007.1 |
| 20260508121603 | 48 | 293 | 1.0 | 5.0 | 0.00 | 0.00 | 0.00 | 52 | 1007.2 |
| 20260508120035 | 46 | 326 | 0.0 | 4.0 | 0.00 | 0.00 | 0.00 | 56 | 1007.2 |
| 20260508114501 | 45 | 305 | 0.0 | 4.0 | 0.00 | 0.00 | 0.00 | 59 | 1007.2 |
| 20260508113041 | 44 | 250 | 0.0 | 1.0 | 0.00 | 0.00 | 0.00 | 61 | 1007.2 |
| 20260508111523 | 42 | 333 | 0.0 | 0.0 | 0.00 | 0.00 | 0.00 | 64 | 1007.1 |
| 20260508110105 | 39 | 329 | 0.0 | 0.0 | 0.00 | 0.00 | 0.00 | 69 | 1007.1 |
| 20260508104541 | 38 | 329 | 0.0 | 0.0 | 0.00 | 0.00 | 0.00 | 72 | 1007.1 |
| 20260508103028 | 38 | 329 | 0.0 | 0.0 | 0.00 | 0.00 | 0.00 | 73 | 1007.0 |
| 20260508101619 | 38 | 329 | 0.0 | 0.0 | 0.00 | 0.00 | 0.00 | 71 | 1006.7 |
| 20260508100033 | 38 | 329 | 0.0 | 0.0 | 0.00 | 0.00 | 0.00 | 69 | 1006.5 |
| 20260508094519 | 37 | 211 | 0.0 | 0.0 | 0.00 | 0.00 | 0.00 | 71 | 1006.4 |
| 20260508093006 | 35 | 316 | 0.0 | 0.0 | 0.00 | 0.00 | 0.00 | 74 | 1006.2 |
| 20260508091549 | 35 | 339 | 0.0 | 0.0 | 0.00 | 0.00 | 0.00 | 76 | 1006.1 |
| 20260508090027 | 35 | 332 | 0.0 | 0.0 | 0.00 | 0.01 | 0.00 | 77 | 1005.8 |
| 20260508084501 | 35 | 332 | 0.0 | 0.0 | 0.00 | 0.01 | 0.00 | 75 | 1005.6 |
| 20260508083048 | 36 | 332 | 0.0 | 0.0 | 0.00 | 0.01 | 0.00 | 74 | 1005.6 |
| 20260508081517 | 36 | 332 | 0.0 | 0.0 | 0.00 | 0.01 | 0.00 | 74 | 1005.6 |
| 20260508080055 | 37 | 332 | 0.0 | 0.0 | 0.00 | 0.01 | 0.00 | 72 | 1005.5 |
| 20260508074528 | 37 | 332 | 0.0 | 0.0 | 0.00 | 0.01 | 0.00 | 71 | 1005.2 |
| 20260508073016 | 38 | 332 | 0.0 | 0.0 | 0.00 | 0.01 | 0.00 | 68 | 1005.3 |
| 20260508071550 | 38 | 332 | 0.0 | 0.0 | 0.00 | 0.01 | 0.00 | 66 | 1005.2 |
| 20260508070022 | 39 | 332 | 0.0 | 0.0 | 0.00 | 0.01 | 0.00 | 65 | 1005.2 |
| 20260508064615 | 40 | 332 | 0.0 | 0.0 | 0.00 | 0.01 | 0.00 | 63 | 1005.2 |
| 20260508063035 | 40 | 331 | 0.0 | 0.0 | 0.00 | 0.01 | 0.00 | 62 | 1005.4 |
| 20260508061516 | 41 | 322 | 0.0 | 0.0 | 0.00 | 0.01 | 0.00 | 61 | 1005.5 |
| 20260508060047 | 41 | 323 | 0.0 | 0.0 | 0.00 | 0.01 | 0.00 | 62 | 1005.5 |
| 20260508054520 | 40 | 337 | 0.0 | 0.0 | 0.00 | 0.01 | 0.00 | 65 | 1005.7 |
| 20260508053056 | 41 | 342 | 0.0 | 0.0 | 0.00 | 0.01 | 0.00 | 65 | 1005.8 |
| 20260508051529 | 41 | 350 | 0.0 | 0.0 | 0.00 | 0.01 | 0.00 | 65 | 1006.0 |
| 20260508050020 | 42 | 350 | 0.0 | 0.0 | 0.00 | 0.03 | 0.00 | 65 | 1006.2 |
| 20260508044552 | 42 | 350 | 0.0 | 0.0 | 0.00 | 0.03 | 0.00 | 65 | 1006.1 |
| 20260508043025 | 43 | 350 | 0.0 | 0.0 | 0.00 | 0.03 | 0.00 | 62 | 1006.1 |
| 20260508041601 | 44 | 350 | 0.0 | 0.0 | 0.00 | 0.03 | 0.00 | 61 | 1006.1 |
| 20260508040039 | 44 | 350 | 0.0 | 0.0 | 0.00 | 0.04 | 0.03 | 59 | 1006.2 |
| 20260508034531 | 45 | 350 | 0.0 | 0.0 | 0.00 | 0.04 | 0.03 | 56 | 1006.1 |
| 20260508033007 | 46 | 320 | 0.0 | 0.0 | 0.00 | 0.04 | 0.03 | 56 | 1006.2 |
| 20260508031546 | 47 | 320 | 0.0 | 0.0 | 0.00 | 0.04 | 0.03 | 53 | 1006.1 |
| 20260508030020 | 48 | 320 | 0.0 | 0.0 | 0.00 | 0.04 | 0.03 | 50 | 1006.2 |
| 20260508024555 | 49 | 320 | 0.0 | 0.0 | 0.00 | 0.04 | 0.03 | 47 | 1006.1 |
| 20260508023042 | 50 | 320 | 0.0 | 0.0 | 0.00 | 0.04 | 0.03 | 47 | 1006.0 |
| 20260508021528 | 51 | 9 | 0.0 | 0.0 | 0.00 | 0.04 | 0.03 | 44 | 1005.8 |
| 20260508020058 | 51 | 50 | 0.0 | 0.0 | 0.00 | 0.05 | 0.03 | 43 | 1005.7 |
| 20260508014546 | 52 | 313 | 0.0 | 4.0 | 0.00 | 0.05 | 0.03 | 41 | 1005.3 |
| 20260508013012 | 52 | 66 | 0.0 | 2.0 | 0.00 | 0.05 | 0.03 | 41 | 1005.2 |
| 20260508011549 | 53 | 329 | 0.0 | 3.0 | 0.00 | 0.05 | 0.03 | 40 | 1005.0 |
| 20260508010027 | 53 | 329 | 0.0 | 3.0 | 0.00 | 0.05 | 0.03 | 40 | 1004.8 |
| 20260508004515 | 53 | 333 | 0.0 | 5.0 | 0.00 | 0.05 | 0.03 | 40 | 1004.6 |
| 20260508003058 | 54 | 319 | 0.0 | 1.0 | 0.00 | 0.05 | 0.03 | 42 | 1004.4 |
| 20260508001530 | 55 | 319 | 0.0 | 0.0 | 0.00 | 0.05 | 0.03 | 40 | 1004.0 |
| 20260508000003 | 56 | 319 | 0.0 | 2.0 | 0.00 | 0.05 | 0.03 | 38 | 1003.9 |
| 20260507234543 | 56 | 240 | 1.0 | 4.0 | 0.00 | 0.05 | 0.03 | 36 | 1003.7 |
| 20260507233031 | 57 | 285 | 0.0 | 4.0 | 0.00 | 0.05 | 0.03 | 35 | 1003.7 |
| 20260507231557 | 58 | 336 | 1.0 | 5.0 | 0.00 | 0.05 | 0.03 | 34 | 1003.6 |
| 20260507230035 | 58 | 273 | 1.0 | 14.0 | 0.00 | 0.07 | 0.03 | 33 | 1003.4 |